Wind_Speed
25 23 22 22 21 20 21 20 22 22 23 23 22 23 24 23 25 25 25 25 23 23 22 22 22 22 22 22 22 22 22 22 22 22 22 22 22 22 22 22 22 22 22 23
27 25 24 23 21 20 19 20 21 22 22 22 22 24 24 24 25 25 25 25 24 23 23 23 23 24 24 24 23 23 23 23 23 23 23 24 23 23 23 23 23 23 24 24
27 24 25 24 22 21 21 22 22 23 22 23 24 26 26 26 26 26 26 26 25 24 24 24 24 24 24 24 24 24 24 24 24 24 24 24 24 24 24 24 24 24 24 25
27 26 27 27 25 23 23 24 24 25 24 24 25 28 27 26 26 27 27 26 26 25 25 25 25 25 25 25 26 25 25 25 25 25 24 24 24 25 25 25 26 25 25 25
26 27 27 26 25 25 24 25 24 25 25 24 26 27 27 27 28 27 28 27 27 26 26 25 26 27 27 26 26 26 25 25 26 25 26 26 26 26 26 26 26 26 25 25
28 28 27 27 26 24 22 25 25 25 26 26 28 29 28 27 28 28 27 28 28 28 27 27 27 27 27 27 27 26 26 26 26 26 26 27 27 27 27 26 26 26 26 26
29 30 30 28 26 25 26 27 27 27 28 28 29 29 28 28 29 28 29 29 28 28 28 28 28 27 27 27 26 27 27 26 26 27 27 27 27 27 27 27 26 27 27 27
27 28 32 30 28 27 27 27 28 29 29 29 29 29 29 29 30 29 29 28 28 28 28 28 27 27 27 26 26 26 26 26 26 27 27 27 27 27 27 26 26 27 27 27
28 29 29 30 30 30 30 30 30 29 29 29 29 29 29 30 30 29 28 28 28 27 27 28 28 28 27 27 27 27 27 26 27 27 27 26 27 28 28 27 27 26 26 26
29 28 28 29 30 31 31 31 30 30 30 29 29 29 29 29 29 29 29 28 27 26 27 28 28 28 28 27 27 27 27 27 27 27 27 28 28 28 27 26 26 25 25 25
31 30 29 29 30 32 32 31 31 32 32 31 29 29 29 28 28 28 29 28 28 27 27 27 27 27 27 27 27 27 27 27 27 27 27 27 27 28 27 26 26 25 25 25
31 31 31 31 31 32 33 32 31 31 31 30 29 29 29 29 28 28 28 28 28 28 28 28 27 27 27 27 26 26 26 26 26 27 27 28 28 28 28 27 26 26 25 25
32 32 32 31 31 31 32 32 32 31 30 30 29 29 29 29 28 28 28 28 28 28 28 28 27 27 26 27 26 26 27 26 26 27 27 28 28 28 28 27 26 26 26 26
31 32 32 32 31 32 32 32 31 31 30 30 29 29 29 28 28 28 28 28 28 28 28 28 28 27 27 27 27 27 27 27 27 27 27 27 27 27 27 27 27 27 27 27
31 31 32 33 32 31 30 30 31 31 30 30 29 29 28 28 28 27 27 27 28 27 27 27 27 26 26 25 26 26 27 27 27 27 27 26 26 27 27 27 27 27 26 27
29 29 30 31 31 31 30 30 30 30 30 30 29 28 27 27 26 26 26 26 27 27 26 26 26 26 25 25 25 25 26 26 26 26 26 25 25 26 26 26 27 27 27 27
28 29 29 29 30 30 30 30 30 29 29 29 29 28 27 27 26 26 26 26 26 26 25 25 25 25 25 25 25 25 25 25 25 25 24 23 24 24 25 26 26 27 27 27
27 28 29 29 29 28 29 30 30 29 28 28 28 27 26 26 26 26 25 25 25 25 24 24 24 24 24 24 24 24 24 24 24 23 23 23 23 24 24 25 25 26 27 27
26 27 28 28 27 27 28 27 27 27 27 28 27 27 26 26 25 25 25 24 24 24 24 24 23 23 23 24 24 24 23 23 23 23 23 23 24 25 25 24 24 24 25 25
25 26 27 27 26 26 26 26 26 26 25 25 25 26 26 25 25 25 25 24 24 23 23 23 23 23 23 23 23 23 23 23 23 24 23 23 24 24 24 24 24 25 25 24
23 24 24 26 25 24 24 25 25 24 23 23 23 24 24 24 24 24 23 23 23 22 22 22 23 22 22 21 22 22 22 22 23 24 24 23 23 23 24 25 26 26 25 24
22 22 22 23 23 22 23 22 22 22 22 22 22 22 22 22 22 22 22 22 21 21 22 22 21 21 21 21 21 22 22 22 23 24 24 24 24 24 25 25 25 26 25 24
21 20 20 19 20 20 20 21 21 21 21 21 22 21 21 20 21 21 21 21 21 21 22 22 21 21 21 21 21 22 22 22 23 24 24 24 24 24 24 25 24 23 23 23
19 19 18 18 18 19 19 19 19 19 19 20 20 21 21 20 20 21 21 21 21 22 22 21 21 21 21 21 22 22 22 22 23 23 23 23 23 23 23 23 23 22 22 22
17 17 15 16 17 18 18 18 18 18 18 19 19 19 20 20 20 20 20 20 20 20 20 20 20 20 20 20 21 21 21 21 22 22 23 23 23 23 22 22 21 21 21 22
15 15 16 16 16 17 17 17 17 17 17 18 18 19 20 20 20 20 20 20 20 20 20 20 20 20 20 20 20 21 21 21 22 22 23 23 22 22 22 22 22 22 22 22
14 14 16 16 16 16 16 16 16 16 16 17 18 19 19 19 19 20 20 20 21 20 20 20 20 20 20 21 21 21 21 21 22 22 22 22 20 21 21 21 22 21 21 21
Wind_Direction
243 243 245 249 252 252 251 253 257 263 270 273 280 281 281 284 288 290 292 293 294 295 296 295 295 295 294 293 293 294 294 292 292 292 292 291 292 292 291 290 290 290 289 290
246 245 245 247 249 251 252 253 258 262 264 270 275 278 281 284 287 288 289 290 292 293 294 294 294 293 292 291 292 293 293 291 289 290 290 291 290 291 290 290 290 290 290 291
249 249 251 250 249 251 253 253 254 259 265 270 272 273 277 280 285 289 290 290 290 292 293 293 292 293 292 291 290 290 290 289 288 287 288 290 291 291 289 289 289 290 290 291
249 247 250 249 252 254 256 255 256 258 262 267 271 273 274 279 282 286 287 288 290 291 290 290 291 291 292 290 290 290 290 289 288 288 289 289 290 291 290 289 289 289 291 291
249 251 251 249 251 252 255 258 259 260 262 265 269 273 275 278 281 282 285 286 288 290 290 290 291 291 291 290 288 288 289 289 289 287 287 287 289 290 290 289 288 288 289 290
248 247 250 249 254 255 257 259 260 261 260 262 266 271 274 277 280 281 283 285 286 288 289 289 291 290 290 289 287 286 285 287 288 287 287 288 288 289 289 286 285 286 287 289
250 249 250 250 255 253 254 259 261 261 262 265 268 271 275 278 280 280 282 285 285 287 288 289 290 290 290 288 287 288 285 284 286 286 286 287 288 289 288 285 284 285 286 288
253 250 251 253 255 254 255 257 259 262 265 267 270 272 273 276 277 278 281 283 285 287 288 289 289 289 290 287 286 288 287 285 286 286 286 287 288 288 286 285 285 285 286 287
251 252 256 257 257 261 260 259 260 262 265 268 270 272 273 274 276 279 280 282 283 285 286 287 288 288 288 287 287 288 288 287 288 287 286 287 288 288 287 286 285 286 288 290
247 250 255 257 258 260 262 263 262 263 266 268 270 272 272 272 275 278 280 282 283 284 286 287 286 285 284 284 285 286 286 287 289 288 286 286 287 287 286 286 286 286 288 290
249 250 253 255 258 259 260 262 263 263 265 267 269 270 272 272 273 277 278 281 283 284 285 287 286 286 285 285 284 284 286 288 289 288 288 289 288 286 284 287 289 287 288 288
253 253 257 259 260 260 261 262 263 264 265 266 268 270 271 272 273 275 277 279 281 283 284 285 286 287 287 286 285 285 287 288 288 288 288 288 288 286 285 286 287 288 287 288
256 258 260 261 261 262 263 263 264 264 266 267 268 269 271 274 275 275 276 279 280 282 283 284 285 286 286 287 287 287 287 289 291 291 291 291 290 288 287 288 288 287 286 286
257 259 260 262 264 262 263 265 265 265 267 268 268 269 270 272 273 275 276 278 279 280 282 284 285 284 285 286 287 288 289 290 291 290 290 290 291 290 289 288 287 286 286 286
258 259 260 262 264 264 264 264 263 264 265 266 268 269 270 271 272 273 275 277 279 280 281 283 284 284 285 286 287 289 291 292 291 290 290 291 290 291 291 291 290 289 290 289
260 261 263 264 263 263 263 263 263 265 266 266 267 269 270 271 271 272 273 276 278 279 281 282 283 284 285 287 288 289 291 293 293 291 290 292 293 292 293 293 293 292 291 290
262 263 265 264 262 262 262 262 263 265 265 265 265 267 269 270 270 272 273 275 277 277 279 280 283 285 286 286 286 286 288 290 292 292 292 292 293 294 294 294 294 294 293 292
264 263 266 267 265 263 262 262 262 264 264 264 264 265 267 268 269 270 272 274 275 276 278 280 284 287 288 289 287 285 286 289 291 291 291 293 296 297 296 296 297 297 296 294
267 266 265 265 264 262 260 261 263 263 263 263 264 264 265 268 269 269 269 271 273 274 277 280 283 285 287 289 290 287 287 289 291 293 291 290 292 295 298 299 300 300 299 298
268 267 266 265 264 264 263 264 265 263 262 262 262 263 264 266 268 268 268 269 270 272 275 278 281 285 289 291 291 288 287 290 294 295 299 297 295 296 297 298 300 301 302 301
268 267 266 264 263 264 263 264 264 263 262 261 261 262 264 265 267 267 267 268 268 270 274 277 280 283 287 290 291 292 292 293 294 296 297 299 300 300 299 300 299 298 297 297
269 268 267 265 264 264 264 264 263 263 263 263 260 261 264 266 266 266 267 268 269 270 273 275 279 283 286 289 291 291 292 294 296 299 300 300 301 301 299 298 299 299 297 295
268 267 266 263 261 260 261 263 263 262 263 264 263 262 264 266 267 267 267 267 269 270 271 275 279 282 285 287 290 291 293 294 297 300 302 302 302 302 302 300 300 301 300 298
269 266 265 261 258 260 261 260 260 261 262 263 264 265 267 267 267 266 267 269 271 271 271 275 278 281 284 287 289 291 293 296 298 300 302 302 302 302 302 301 302 301 299 299
267 265 265 260 258 259 259 260 260 259 260 262 263 265 265 265 265 265 266 267 271 273 274 275 278 281 283 286 288 290 293 295 297 299 301 302 302 300 300 302 303 302 303 299
269 266 267 267 262 260 260 259 258 258 259 261 263 266 266 265 265 267 268 269 272 274 275 277 278 280 282 286 288 290 293 295 296 297 299 300 300 300 300 301 302 303 303 303
276 271 265 263 262 262 262 261 260 262 262 262 263 264 265 266 266 267 269 270 271 272 274 276 277 279 281 284 286 288 290 294 296 296 298 299 301 301 301 301 301 302 302 302
Height
5870 5872 5874 5875 5876 5877 5877 5878 5880 5879 5878 5876 5875 5874 5872 5871 5870 5869 5867 5865 5864 5862 5860 5858 5856 5854 5852 5851 5849 5848 5846 5845 5844 5842 5841 5839 5838 5837 5836 5834 5833 5832 5831 5830
5862 5864 5866 5866 5868 5871 5872 5873 5873 5872 5872 5870 5870 5867 5866 5865 5864 5863 5862 5860 5858 5856 5855 5853 5851 5849 5847 5845 5844 5842 5841 5839 5838 5836 5835 5833 5832 5831 5829 5828 5827 5826 5825 5823
5854 5857 5858 5859 5862 5864 5866 5865 5865 5865 5865 5865 5863 5862 5861 5859 5858 5857 5856 5854 5852 5851 5849 5847 5845 5843 5841 5839 5838 5836 5835 5833 5831 5830 5828 5827 5825 5824 5823 5822 5821 5819 5818 5817
5848 5850 5850 5855 5856 5857 5858 5858 5859 5859 5859 5858 5857 5855 5854 5853 5853 5851 5850 5848 5846 5845 5843 5841 5839 5837 5835 5833 5831 5830 5828 5827 5825 5823 5822 5820 5819 5817 5816 5815 5814 5812 5811 5810
5841 5841 5843 5846 5848 5849 5849 5849 5851 5851 5851 5851 5849 5849 5847 5846 5845 5845 5843 5842 5840 5838 5837 5835 5832 5830 5828 5827 5825 5823 5821 5820 5818 5817 5815 5814 5812 5811 5809 5808 5806 5805 5804 5803
5833 5834 5835 5838 5840 5841 5842 5841 5842 5842 5842 5842 5842 5842 5841 5840 5839 5838 5836 5835 5834 5832 5830 5828 5826 5823 5821 5819 5817 5816 5814 5813 5811 5809 5808 5807 5805 5803 5802 5800 5799 5798 5797 5796
5824 5826 5827 5830 5831 5834 5836 5834 5833 5833 5834 5835 5834 5834 5834 5833 5832 5830 5829 5828 5826 5825 5823 5821 5819 5816 5814 5812 5810 5808 5807 5805 5804 5802 5801 5799 5798 5796 5794 5793 5792 5791 5790 5788
5817 5818 5821 5821 5823 5824 5823 5824 5824 5826 5827 5827 5827 5826 5826 5825 5824 5822 5821 5820 5819 5817 5815 5814 5811 5809 5807 5805 5803 5802 5800 5799 5797 5795 5793 5792 5790 5789 5787 5786 5785 5783 5782 5781
5809 5812 5811 5812 5813 5813 5814 5816 5817 5818 5819 5819 5819 5819 5818 5817 5816 5815 5814 5812 5811 5810 5808 5806 5804 5802 5800 5798 5797 5795 5794 5792 5790 5788 5787 5785 5783 5781 5779 5778 5777 5776 5775 5773
5800 5802 5802 5803 5804 5805 5806 5807 5808 5809 5810 5810 5811 5811 5810 5809 5809 5808 5807 5804 5803 5802 5801 5799 5797 5795 5793 5791 5790 5788 5787 5785 5784 5782 5780 5778 5776 5775 5773 5771 5770 5769 5768 5767
5791 5794 5794 5795 5795 5796 5797 5799 5799 5801 5802 5802 5802 5802 5801 5801 5801 5800 5799 5798 5796 5795 5794 5792 5790 5788 5786 5784 5783 5781 5780 5778 5776 5775 5773 5771 5769 5767 5766 5765 5763 5762 5761 5760
5783 5785 5785 5786 5787 5788 5789 5790 5791 5792 5793 5793 5794 5793 5793 5792 5792 5791 5790 5790 5789 5788 5786 5784 5782 5781 5779 5777 5776 5774 5773 5771 5769 5768 5766 5764 5762 5760 5759 5758 5756 5755 5754 5753
5774 5776 5776 5777 5778 5779 5780 5781 5782 5783 5784 5785 5785 5785 5784 5784 5784 5783 5782 5782 5781 5780 5778 5777 5775 5773 5772 5770 5769 5767 5766 5764 5762 5761 5758 5757 5755 5753 5752 5751 5749 5748 5747 5746
5765 5766 5767 5768 5769 5770 5771 5772 5773 5774 5775 5776 5776 5776 5776 5776 5776 5775 5775 5774 5773 5772 5771 5769 5768 5766 5764 5763 5761 5760 5758 5757 5755 5753 5752 5750 5748 5746 5745 5743 5742 5741 5740 5739
5757 5757 5758 5759 5760 5761 5762 5763 5764 5765 5766 5767 5767 5767 5767 5768 5768 5767 5767 5766 5765 5764 5763 5762 5760 5759 5757 5756 5754 5753 5751 5749 5748 5746 5744 5742 5740 5739 5737 5736 5735 5734 5732 5731
5749 5750 5750 5750 5751 5752 5753 5754 5755 5756 5757 5758 5758 5759 5759 5759 5759 5759 5759 5758 5758 5757 5756 5754 5753 5752 5751 5749 5748 5746 5744 5743 5741 5739 5736 5734 5732 5731 5730 5728 5727 5726 5725 5724
5741 5741 5741 5741 5742 5743 5744 5745 5746 5747 5748 5749 5750 5750 5751 5751 5751 5751 5751 5751 5750 5749 5748 5747 5746 5745 5744 5742 5741 5739 5737 5735 5733 5731 5729 5727 5726 5724 5723 5722 5720 5719 5718 5716
5732 5732 5733 5733 5733 5734 5735 5737 5738 5739 5740 5740 5741 5742 5743 5743 5743 5743 5744 5743 5743 5742 5742 5741 5740 5739 5737 5736 5734 5732 5731 5729 5727 5725 5723 5721 5719 5718 5716 5715 5713 5712 5710 5709
5724 5725 5725 5725 5725 5726 5727 5728 5729 5730 5731 5732 5733 5734 5735 5735 5735 5736 5736 5736 5736 5736 5735 5734 5733 5732 5731 5729 5728 5726 5725 5723 5721 5719 5716 5715 5713 5712 5710 5708 5707 5705 5704 5702
5717 5717 5717 5718 5718 5719 5720 5721 5722 5723 5723 5724 5725 5726 5727 5728 5728 5728 5728 5729 5729 5729 5729 5728 5727 5726 5725 5723 5722 5720 5719 5717 5715 5713 5710 5709 5707 5705 5703 5702 5700 5699 5697 5695
5710 5710 5710 5711 5711 5712 5713 5713 5714 5715 5716 5717 5718 5719 5719 5720 5721 5721 5721 5722 5722 5722 5722 5722 5721 5720 5719 5718 5716 5715 5713 5711 5709 5707 5705 5703 5701 5699 5698 5696 5694 5692 5691 5689
5703 5704 5704 5704 5705 5706 5706 5707 5708 5708 5709 5710 5711 5712 5713 5713 5714 5715 5715 5716 5716 5716 5716 5715 5715 5714 5713 5712 5711 5709 5708 5706 5704 5702 5699 5697 5696 5694 5692 5690 5688 5686 5684 5682
5698 5697 5697 5698 5699 5700 5700 5701 5702 5702 5703 5704 5705 5706 5706 5707 5708 5708 5709 5709 5709 5709 5709 5709 5709 5708 5707 5706 5705 5704 5702 5700 5698 5696 5694 5692 5690 5688 5686 5684 5681 5679 5677 5676
5692 5692 5692 5692 5693 5694 5695 5695 5696 5697 5697 5698 5699 5699 5700 5701 5702 5702 5702 5703 5702 5702 5702 5702 5702 5702 5701 5700 5699 5698 5696 5695 5693 5691 5689 5686 5684 5682 5680 5678 5676 5673 5672 5670
5687 5687 5687 5688 5688 5689 5690 5690 5691 5691 5692 5693 5694 5694 5694 5695 5695 5696 5696 5697 5697 5696 5696 5696 5696 5696 5695 5694 5693 5691 5690 5688 5687 5685 5683 5680 5678 5676 5674 5671 5669 5667 5665 5664
5683 5683 5683 5684 5684 5684 5685 5685 5686 5686 5687 5687 5688 5689 5689 5689 5690 5690 5690 5690 5690 5690 5690 5690 5690 5689 5689 5688 5687 5685 5684 5682 5680 5679 5677 5674 5672 5670 5667 5665 5663 5661 5659 5658
5679 5679 5678 5679 5679 5680 5680 5681 5681 5681 5682 5682 5683 5683 5683 5684 5684 5684 5684 5684 5684 5684 5684 5684 5683 5683 5682 5681 5680 5679 5678 5676 5674 5672 5670 5668 5666 5664 5662 5660 5658 5655 5653 5651